Regional Weather Roundup
Issued by NWS

Home | Current Version | Previous Version | Text Only | Print | Product List | Glossary Off
Versions: 1 2 3 4 5 6 7 8 9 10 11 12 13 14 15 16 17 18 19 20 21 22 23 24 25 26 27 28 29 30 31 32 33 34 35 36 37 38 39 40 41 42 43 44 45 46 47 48 49 50

000
ASUS43 KBIS 260210
RWRND

NORTH DAKOTA REGIONAL WEATHER ROUNDUP
NATIONAL WEATHER SERVICE BISMARCK ND
900 PM CDT TUE JUL 25 2017

NOTE: "FAIR" INDICATES FEW OR NO CLOUDS BELOW 12,000 FEET WITH NO
SIGNIFICANT WEATHER AND/OR OBSTRUCTIONS TO VISIBILITY.


NDZ001>003-009>011-017-260300-
NORTHWEST NORTH DAKOTA

CITY           SKY/WX    TMP DP  RH WIND       PRES   REMARKS
WILLISTON      CLEAR     82  43  25 N10       30.03R
MINOT          CLEAR     78  53  41 NW8       29.99R
MINOT AFB      CLEAR     77  55  45 NW8       29.98R
$$

NDZ018>021-031>035-040>046-260300-
SOUTHWEST NORTH DAKOTA

CITY           SKY/WX    TMP DP  RH WIND       PRES   REMARKS
BISMARCK       CLOUDY    81  50  33 N6        29.98S
DICKINSON      CLOUDY    79  47  32 N5        30.03S
GARRISON         N/A     78  50  37 N8        29.99S
HETTINGER ARPT CLOUDY    76  52  43 CALM      30.05S
$$

NDZ004>008-012>016-024-026-027-054-260300-
NORTHEAST NORTH DAKOTA

CITY           SKY/WX    TMP DP  RH WIND       PRES   REMARKS
GRAND FORKS    PTCLDY    75  61  61 NW9       29.92R
GRND FRKS AFB  CLEAR     73  58  59 N10       29.94R
DEVILS LAKE    CLEAR     71  60  68 N8        29.97R
$$

NDZ022-023-025-028>030-036>039-047>053-260300-
SOUTHEAST NORTH DAKOTA

CITY           SKY/WX    TMP DP  RH WIND       PRES   REMARKS
FARGO          CLOUDY    77  70  79 SW5       29.92R
JAMESTOWN      CLOUDY    71  58  63 N6        29.96R
$$




USA.gov is the U.S. government's official web portal to all federal, state and local government web resources and services.